Flag for Slovenia Weather past 2 weeks in Celje, Slovenia

Now
67 °F

Mild.


Feels Like: 67 °F
Forecast: 48 / 75 °F
Wind: 1 mph from Northeast

Location: Celje

Current Time: Aug 28, 2014 at 2:13:10 PM

Latest Report: Aug 28, 2014 at 12:00 PM


Visibility: N/A

Pressure: 30.14 "Hg

Humidity: 54%

Dew point: 50 °F

Location of CeljeLocation

Historic Weather in Celje — Graph

°F

Celje temperature yesterday

Maximum temperature yesterday: 80 °F (at 4:00 PM)
Minimum temperature yesterday: 59 °F (at 11:00 PM)
Average temperature yesterday: 68 °F

Past Weeks' High & Low Weather Summary

 TemperatureHumidityPressure
High80 °F (Aug 27, 4:00 PM)99% (Aug 15, 6:00 AM)30.18 "Hg (Aug 15, 6:00 AM)
Low48 °F (Aug 18, 6:00 AM)38% (Aug 17, 2:00 PM)29.66 "Hg (Aug 13, 8:00 PM)
Average62 °F84%29.97 "Hg
* Reported Aug 13 12:00 Noon — Aug 28 12:00 Noon, Celje, Weather by CustomWeather, © 2014

Note: Actual official high and low records may vary slightly from our data, if they occured in-between our weather recording intervals... More about our weather records

Advertising

Celje weather history for previous 24 hours

 ConditionsComfort  
Time TempWeatherWind HumidityBarometerVisibility
12:00 PM
Aug 28
67 °FMild.1 mph54%30.14 "HgN/A
11:00 AM65 °FMild.1 mph61%30.15 "HgN/A
10:00 AM63 °FMild.1 mph73%30.16 "HgN/A
9:00 AM59 °FCool.1 mph86%30.16 "HgN/A
8:00 AM55 °FPassing clouds.1 mph95%30.16 "Hg9 mi
7:00 AM52 °FFog.No wind97%30.16 "Hg1 mi
6:00 AM53 °FFog.1 mph98%30.16 "Hg4 mi
5:00 AM51 °FPassing clouds.1 mph97%30.16 "Hg11 mi
4:00 AM53 °FCool.No wind96%30.14 "HgN/A
3:00 AM55 °FCool.1 mph95%30.13 "HgN/A
2:00 AM57 °FCool.No wind94%30.12 "HgN/A
1:00 AM58 °FCool.No wind92%30.11 "HgN/A
12:00 AM58 °FCool.1 mph92%30.10 "HgN/A
11:00 PM
Aug 27
59 °FCool.1 mph90%30.08 "HgN/A
10:00 PM60 °FCool.2 mph86%30.06 "HgN/A
9:00 PM61 °FCool.2 mph89%30.03 "HgN/A
7:00 PM73 °FMild.2 mph67%29.87 "HgN/A
6:00 PM75 °FMild.3 mph65%29.85 "HgN/A
5:00 PM80 °FWarm.2 mph52%29.82 "HgN/A
4:00 PM80 °FWarm.1 mph47%29.80 "HgN/A
3:00 PM78 °FPassing clouds.1 mph52%29.81 "Hg31 mi
2:00 PM77 °FPassing clouds.1 mph54%29.81 "Hg31 mi
Weather by CustomWeather, © 2014

See weather overviewHow to use our weather pages